• In Latvia
  • List of Countries
  • For 7 days
  • Water Temperature
  • Satellite Maps
  • Weather Map
  • Weather Widgets
  • user-avatar
    Login

    Hourly Weather Kreshnevo

    Today, 17 July, Tuesday

    Time Temperature Precipitation Wind Pressure Humidity
    00:00 +19°C° 0 mm 3 mps 750 mmHg 84%
    01:00 +19°C° 0 mm 3 mps 750 mmHg 85%
    02:00 +18°C° 0 mm 2 mps 750 mmHg 93%
    03:00 +19°C° 0 mm 3 mps 750 mmHg 88%
    04:00 +19°C° 0 mm 3 mps 750 mmHg 84%
    05:00 +20°C° 0 mm 4 mps 750 mmHg 80%
    06:00 +22°C° 0 mm 4 mps 750 mmHg 73%
    07:00 +23°C° 0 mm 4 mps 750 mmHg 66%
    08:00 +26°C° 0 mm 5 mps 750 mmHg 59%
    09:00 +27°C° 0 mm 5 mps 750 mmHg 55%
    10:00 +28°C° 0 mm 5 mps 750 mmHg 51%
    11:00 +29°C° 0 mm 6 mps 750 mmHg 47%
    12:00 +29°C° 0 mm 6 mps 749 mmHg 45%
    13:00 +30°C° 0 mm 6 mps 749 mmHg 43%
    14:00 +30°C° 0 mm 6 mps 749 mmHg 42%
    15:00 +30°C° 0 mm 6 mps 749 mmHg 43%
    16:00 +29°C° 0 mm 5 mps 749 mmHg 44%
    17:00 +29°C° 0 mm 5 mps 748 mmHg 45%
    18:00 +27°C° 0 mm 5 mps 748 mmHg 51%
    19:00 +26°C° 0 mm 4 mps 748 mmHg 57%
    20:00 +23°C° 0 mm 4 mps 748 mmHg 62%
    21:00 +22°C° 0 mm 4 mps 748 mmHg 64%
    22:00 +22°C° 0 mm 4 mps 748 mmHg 65%
    23:00 +21°C° 0 mm 4 mps 748 mmHg 66%

    Tomorrow, 18 July, Wednesday

    Time Temperature Precipitation Wind Pressure Humidity
    00:00 +21°C° 0 mm 4 mps 748 mmHg 67%
    01:00 +21°C° 0 mm 4 mps 748 mmHg 68%
    02:00 +20°C° 0 mm 5 mps 748 mmHg 69%
    03:00 +20°C° 0 mm 5 mps 748 mmHg 70%
    04:00 +20°C° 0 mm 5 mps 748 mmHg 70%
    05:00 +20°C° 0 mm 5 mps 748 mmHg 71%
    06:00 +21°C° 0 mm 6 mps 748 mmHg 66%
    07:00 +23°C° 0 mm 6 mps 747 mmHg 62%
    08:00 +24°C° 0 mm 6 mps 747 mmHg 57%
    09:00 +26°C° 0 mm 6 mps 747 mmHg 55%
    10:00 +27°C° 0 mm 6 mps 747 mmHg 52%
    11:00 +28°C° 0 mm 6 mps 747 mmHg 49%
    12:00 +28°C° 0.3 mm 6 mps 747 mmHg 52%
    13:00 +28°C° 0.3 mm 6 mps 746 mmHg 56%
    14:00 +28°C° 0.3 mm 6 mps 746 mmHg 59%
    15:00 +27°C° 0.1 mm 6 mps 746 mmHg 61%
    16:00 +27°C° 0.1 mm 6 mps 746 mmHg 62%
    17:00 +26°C° 0.1 mm 6 mps 746 mmHg 63%
    18:00 +24°C° 0 mm 6 mps 747 mmHg 67%
    19:00 +23°C° 0 mm 5 mps 747 mmHg 71%
    20:00 +22°C° 0 mm 5 mps 747 mmHg 76%
    21:00 +21°C° 0 mm 5 mps 747 mmHg 76%
    22:00 +21°C° 0 mm 5 mps 747 mmHg 77%
    23:00 +21°C° 0 mm 4 mps 747 mmHg 78%

    Day after tomorrow, 19 July, Thursday

    Time Temperature Precipitation Wind Pressure Humidity
    00:00 +20°C° 0 mm 5 mps 747 mmHg 79%
    01:00 +20°C° 0 mm 5 mps 746 mmHg 79%
    02:00 +20°C° 0 mm 5 mps 746 mmHg 80%
    03:00 +20°C° 0 mm 5 mps 746 mmHg 79%
    04:00 +20°C° 0 mm 5 mps 747 mmHg 78%
    05:00 +20°C° 0 mm 5 mps 747 mmHg 77%
    06:00 +21°C° 0.1 mm 5 mps 747 mmHg 73%
    07:00 +23°C° 0.1 mm 6 mps 747 mmHg 70%
    08:00 +24°C° 0.1 mm 6 mps 747 mmHg 66%
    09:00 +26°C° 0 mm 6 mps 747 mmHg 62%
    10:00 +27°C° 0 mm 6 mps 747 mmHg 59%
    11:00 +28°C° 0 mm 6 mps 747 mmHg 56%
    12:00 +27°C° 0.9 mm 6 mps 747 mmHg 64%
    13:00 +27°C° 0.9 mm 6 mps 747 mmHg 72%
    14:00 +26°C° 0.9 mm 6 mps 747 mmHg 79%
    15:00 +26°C° 0.3 mm 6 mps 747 mmHg 76%
    16:00 +26°C° 0.3 mm 6 mps 747 mmHg 73%
    17:00 +26°C° 0.3 mm 6 mps 747 mmHg 69%
    18:00 +25°C° 0.9 mm 5 mps 747 mmHg 75%
    19:00 +23°C° 0.9 mm 5 mps 747 mmHg 81%
    20:00 +22°C° 0.9 mm 4 mps 747 mmHg 87%
    21:00 +21°C° 0.3 mm 4 mps 747 mmHg 89%
    22:00 +21°C° 0.3 mm 4 mps 747 mmHg 91%
    23:00 +20°C° 0.3 mm 4 mps 747 mmHg 93%

    20 July, Friday

    Time Temperature Precipitation Wind Pressure Humidity
    00:00 +20°C° 0 mm 4 mps 747 mmHg 93%
    01:00 +19°C° 0 mm 4 mps 748 mmHg 94%
    02:00 +19°C° 0 mm 4 mps 748 mmHg 94%
    03:00 +19°C° 0 mm 4 mps 748 mmHg 93%
    04:00 +19°C° 0 mm 4 mps 748 mmHg 91%
    05:00 +20°C° 0 mm 4 mps 748 mmHg 90%
    06:00 +20°C° 0 mm 5 mps 748 mmHg 85%
    07:00 +21°C° 0 mm 5 mps 748 mmHg 81%
    08:00 +22°C° 0 mm 5 mps 748 mmHg 77%
    09:00 +22°C° 0 mm 5 mps 748 mmHg 73%
    10:00 +23°C° 0 mm 5 mps 748 mmHg 69%
    11:00 +25°C° 0 mm 5 mps 748 mmHg 65%
    12:00 +25°C° 0 mm 5 mps 748 mmHg 64%
    13:00 +25°C° 0 mm 5 mps 748 mmHg 63%
    14:00 +25°C° 0 mm 5 mps 748 mmHg 62%
    15:00 +25°C° 0 mm 5 mps 748 mmHg 63%
    16:00 +25°C° 0 mm 4 mps 747 mmHg 64%
    17:00 +25°C° 0 mm 4 mps 747 mmHg 65%
    18:00 +23°C° 0.1 mm 4 mps 747 mmHg 73%
    19:00 +22°C° 0.1 mm 3 mps 747 mmHg 80%
    20:00 +20°C° 0.1 mm 3 mps 747 mmHg 87%
    21:00 +20°C° 0 mm 3 mps 747 mmHg 90%
    22:00 +19°C° 0 mm 3 mps 747 mmHg 92%
    23:00 +18°C° 0 mm 3 mps 746 mmHg 95%

    21 July, Saturday

    Time Temperature Precipitation Wind Pressure Humidity
    00:00 +18°C° 0 mm 3 mps 746 mmHg 95%
    01:00 +18°C° 0 mm 3 mps 746 mmHg 96%
    02:00 +19°C° 0 mm 3 mps 746 mmHg 96%
    03:00 +19°C° 0.1 mm 3 mps 746 mmHg 96%
    04:00 +19°C° 0.1 mm 3 mps 746 mmHg 96%
    05:00 +19°C° 0.1 mm 3 mps 746 mmHg 96%
    06:00 +19°C° 0 mm 3 mps 746 mmHg 95%
    07:00 +20°C° 0 mm 3 mps 746 mmHg 94%
    08:00 +20°C° 0 mm 3 mps 746 mmHg 93%
    09:00 +21°C° 0 mm 3 mps 746 mmHg 90%
    10:00 +22°C° 0 mm 3 mps 746 mmHg 87%
    11:00 +22°C° 0 mm 3 mps 746 mmHg 84%
    12:00 +24°C° 0 mm 3 mps 746 mmHg 80%
    13:00 +25°C° 0 mm 3 mps 746 mmHg 77%
    14:00 +26°C° 0 mm 3 mps 745 mmHg 73%
    15:00 +27°C° 0.1 mm 3 mps 745 mmHg 72%
    16:00 +27°C° 0.1 mm 3 mps 745 mmHg 71%
    17:00 +28°C° 0.1 mm 3 mps 745 mmHg 70%
    18:00 +26°C° 0 mm 3 mps 745 mmHg 76%
    19:00 +25°C° 0 mm 2 mps 745 mmHg 83%
    20:00 +24°C° 0 mm 2 mps 745 mmHg 89%
    21:00 +23°C° 0 mm 2 mps 744 mmHg 92%
    22:00 +21°C° 0 mm 2 mps 744 mmHg 94%
    23:00 +21°C° 0 mm 2 mps 744 mmHg 97%

    22 July, Sunday

    Time Temperature Precipitation Wind Pressure Humidity
    00:00 +20°C° 0.3 mm 2 mps 744 mmHg 97%
    01:00 +20°C° 0.3 mm 2 mps 744 mmHg 98%
    02:00 +20°C° 0.3 mm 2 mps 744 mmHg 98%
    03:00 +20°C° 0 mm 2 mps 744 mmHg 97%
    04:00 +21°C° 0 mm 2 mps 744 mmHg 96%
    05:00 +21°C° 0 mm 2 mps 744 mmHg 95%
    06:00 +24°C° 0.1 mm 2 mps 745 mmHg 89%
    07:00 +25°C° 0.1 mm 3 mps 745 mmHg 83%
    08:00 +27°C° 0.1 mm 3 mps 745 mmHg 77%
    09:00 +28°C° 0.2 mm 3 mps 744 mmHg 70%
    10:00 +29°C° 0.2 mm 4 mps 744 mmHg 63%
    11:00 +30°C° 0.2 mm 4 mps 744 mmHg 57%
    12:00 +32°C° 0.1 mm 4 mps 744 mmHg 56%
    13:00 +32°C° 0.1 mm 4 mps 744 mmHg 54%
    14:00 +32°C° 0.1 mm 5 mps 744 mmHg 53%
    15:00 +30°C° 0.3 mm 4 mps 744 mmHg 58%
    16:00 +30°C° 0.3 mm 4 mps 744 mmHg 63%
    17:00 +29°C° 0.3 mm 4 mps 744 mmHg 68%
    18:00 +27°C° 0.3 mm 4 mps 744 mmHg 73%
    19:00 +26°C° 0.3 mm 3 mps 744 mmHg 77%
    20:00 +25°C° 0.3 mm 3 mps 744 mmHg 82%
    21:00 +24°C° 0.6 mm 3 mps 744 mmHg 85%
    22:00 +22°C° 0.6 mm 3 mps 744 mmHg 88%
    23:00 +22°C° 0.6 mm 3 mps 744 mmHg 91%
    Show more